Miscellaneous Local Product
Issued by NWS North Platte, NE

Home | Current Version | Previous Version | Graphics & Text | Print | Product List | Glossary On
Versions: 1 2 3 4 5 6 7 8 9 10 11 12 13 14 15 16 17 18 19 20 21 22 23 24 25 26 27 28 29 30 31 32 33 34 35 36 37 38 39 40 41 42 43 44 45 46 47 48 49 50
258
AXUS43 KLBF 212110
MISLBF


WESTERN AND NORTH CENTRAL NEBRASKA HOURLY WEATHER ROUNDUP
NATIONAL WEATHER SERVICE NORTH PLATTE NE
300 PM CST SUN JAN 21 2018

NOTE: "FAIR" INDICATES FEW OR NO CLOUDS BELOW 12,000 FEET WITH NO
SIGNIFICANT WEATHER AND/OR OBSTRUCTIONS TO VISIBILITY.

NOTE: STATIONS NOT REPORTING VARIABLES SUCH AS SKY/WEATHER OR
PRESSURE ARE PROVIDED BY RAWS AND APRS NETWORKS AND ARE NOT UNDER
NATIONAL WEATHER SERVICE QUALITY CONTROL.

...OBSERVATIONS IN AND NEAR THE EASTERN PANHANDLE OF NEBRASKA...

CITY           SKY/WX    TMP DP  RH WIND       PRES   REMARKS
PINE RIDGE     LGT SNOW  31  27  85 N10       29.93S FOG     WCI  22
GORDON         LGT SNOW  30  28  90 N17       29.89S VSB 1   WCI  18
CHADRON        LGT SNOW  30  27  88 N12       29.96R FOG     WCI  20
ALLIANCE       FOG       28  27  96 N18G28    29.85S VSB 1   WCI  15
SIDNEY         LGT SNOW  28  25  88 N21       29.82R VSB 1   WCI  15
CRESCENT LAKE    N/A     28  27  96 N15G24      N/A  WCI  16
$$

...OBSERVATIONS IN NORTHERN NEBRASKA AND FAR SOUTHERN SOUTH DAKOTA...

CITY           SKY/WX    TMP DP  RH WIND       PRES   REMARKS
WINNER         LGT SNOW  34  32  92 N16       29.91S FOG     WCI  24
VALENTINE      LGT SNOW  32  29  88 N15       29.88S FOG     WCI  22
AINSWORTH      CLOUDY    32  32  97 N21       29.84F WCI  20
O`NEILL        CLOUDY    37  32  85 N22G28    29.82R WCI  25
THEDFORD       CLOUDY    33  31  93 N18G30    29.81S WCI  21
BROKEN BOW     MIX PCPN  35  29  78 N21G38    29.71F WCI  24
ORD            CLOUDY    36  30  79 N21G29    29.74F WCI  25
ALBION         CLOUDY    38  31  76 N18G24    29.72F WCI  28
VALENTINE NWR    N/A     30  29  94 N13G26      N/A  WCI  20
HALSEY           N/A     31  30  94 N10G23      N/A  WCI  22
BUTTE            N/A     34  30  86 N17G26      N/A  WCI  23
CHAMBERS         N/A     37  31  78 N5G16       N/A  WCI  33
EWING            N/A     37  33  84 NE12G21     N/A  WCI  29
$$

...OBSERVATIONS IN SOUTHWEST NEBRASKA AND FAR NORTHEAST COLORADO...

CITY           SKY/WX    TMP DP  RH WIND       PRES   REMARKS
WRAY           SNOW      32  32 100 N21G31    29.72R VSB 1/4 WCI  20
HOLYOKE        SNOW      34  30  86 N25G31    29.76R VSB 1/2 WCI  21
IMPERIAL       LGT SNOW  31  30  96 N22G38    29.71S FOG     WCI  18
OGALLALA       LGT SNOW  32  30  92 N21G29    29.77S VSB 3/4 WCI  20
NORTH PLATTE   LGT SNOW  33  29  85 N17G28    29.74S FOG     WCI  22
MCCOOK         LGT SNOW  32  32 100 NE22G31   29.66S FOG     WCI  19
LEXINGTON      LGT SNOW  34  31  91 N21G26    29.67S WCI  22
STAPLETON        N/A     30  28  94 NE7G15      N/A  WCI  23
GOTHENBURG       N/A     32  28  85 N18         N/A  WCI  20
CALLAWAY         N/A     32  30  92 NE13        N/A  WCI  22
$$

...OBSERVATIONS IN CENTRAL LINCOLN COUNTY AREA...

CITY           SKY/WX    TMP DP  RH WIND       PRES   REMARKS
N.P. AIRPORT   LGT SNOW  33  29  85 N17G28    29.74S FOG     WCI  22
N.P. DOWNTOWN    N/A     32  30  92 NE9G17      N/A  WCI  24
N.P. SOUTHEAST   N/A     31  29  90 N7G14       N/A  WCI  24
N.P. HILLCREST   N/A     32  30  94 NE23G37     N/A  WCI  19
$$

...SOME OBSERVATIONS FROM AROUND THE REGION...

CITY           SKY/WX    TMP DP  RH WIND       PRES   REMARKS
DENVER         SNOW      24  20  84 N28G37    29.84R VSB 1/2 WCI   7
BERTHOUD PASS  SNOW       1  -9  60 W5        29.64R VSB 1/4 WCI  -8
GRAND JUNCTION CLOUDY    31  23  72 W20       29.98R WCI  19
LARAMIE        LGT SNOW  17  15  92 NW22      29.84R VSB 3/4 WCI   0
CHEYENNE       LGT SNOW  20  18  92 N21G31    29.84R VSB 1   WCI   4
CASPER         CLOUDY    22  16  78 NW5       30.00R WCI  16
BISMARCK       PTSUNNY   27  22  81 SE5       30.02S WCI  22
RAPID CITY     CLOUDY    35  23  61 N18       29.95F WCI  24
PIERRE         CLOUDY    33  28  81 N7        29.96F WCI  27
SIOUX FALLS    PTSUNNY   40  31  70 NE21G32   29.86F WCI  30
OMAHA          CLOUDY    40  39  97 N9        29.72S FOG     WCI  34
GRAND ISLAND   LGT RAIN  34  34 100 NE20G28   29.68F FOG     WCI  23
SCOTTSBLUFF    LGT SNOW  29  25  85 N18       29.90R FOG     WCI  16
KANSAS CITY    PTSUNNY   62  50  64 SW18G28   29.68F
HILL CITY      LGT SNOW  37  36  96 NE18      29.61F VSB 1   WCI  27
WICHITA        PTSUNNY   62  46  55 SW20      29.60S
DODGE CITY     CLOUDY    40  33  76 W15       29.64R WCI  32
OKLAHOMA CITY  MOSUNNY   69  46  43 S18       29.66F
DALLAS         CLOUDY    76  60  57 S23       29.72F
AMARILLO       PTSUNNY   53  14  21 SW29G43   29.66F
$$




USA.gov is the U.S. government's official web portal to all federal, state and local government web resources and services.